Tracking 28125 objects as of 3-Oct-2023
HD Live streaming from Space Station
objects crossing your sky now

STARLINK-4325

Track STARLINK-4325 now!
10-day predictions
STARLINK-4325 is classified as:


NORAD ID: 53068
Int'l Code: 2022-077AB
Perigee: 568.5 km
Apogee: 571.7 km
Inclination: 97.7 °
Period: 95.9 minutes
Semi major axis: 6941 km
RCS: Unknown
Launch date: July 11, 2022
Source: United States (US)
Launch site: AIR FORCE WESTERN TEST RANGE (AFWTR)
Your satellite tracking list
Your tracking list is empty




NASA's NSSDC Master Catalog

Two Line Element Set (TLE):
1 53068U 22077AB  23275.80196758  .00000454  00000-0  39956-4 0  9992
2 53068  97.6567  95.3174 0002313 119.4590 240.6865 15.01261905 68130
Source of the keplerian elements: AFSPC